Lyndonville, VT

11:01 AM EST on December 10, 2016 (GMT -0500)
Lyndonville

Weather History for KCDA - March, 2013

Change the Weather History Date:

Wednesday, March 27, 2013

  Actual Average (K1V4) Record (K1V4)
Temperature  
Mean Temperature 32 °F -  
Max Temperature 40 °F 41 °F 69 °F (1993)
Min Temperature 25 °F 23 °F -7 °F (1923)
Degree Days  
Heating Degree Days 32    
Moisture  
Dew Point 25 °F    
Average Humidity 72    
Maximum Humidity 94    
Minimum Humidity 52    
Precipitation  
Precipitation 0.00 in - - ()
Sea Level Pressure  
Sea Level Pressure 29.81 in    
Wind  
Wind Speed 3 mph (NW)    
Max Wind Speed 14 mph    
Max Gust Speed 21 mph    
Visibility 9 miles    
Events Rain , Snow    
Averages and records for this station are not official NWS values.
T = Trace of Precipitation, MM = Missing Value Source: NWS Daily Summary

Daily Weather History Graph

Daily Weather History Graph

Search for Another Location

Airport or City:

Trip Planner

Search our weather history database for the weather conditions in past years. The results will help you decide how hot, cold, wet, or windy it might be!

Date:

Astronomy

Mar. 27, 2013 Rise Set
Actual Time 6:37 AM EDT 7:09 PM EDT
Civil Twilight 6:08 AM EDT 7:38 PM EDT
Nautical Twilight 5:34 AM EDT 8:13 PM EDT
Astronomical Twilight 4:58 AM EDT 8:49 PM EDT
Moon 7:53 PM EDT (3/27) 6:25 AM EDT (3/27)
Length of Visible Light 13h 30m
Length of Day
12h 31m
Full, 100% of the Moon is Illuminated
Mar 27
Full
Apr 3
Last Quarter
Apr 10
New
Apr 18
First Quarter
Apr 25
Full

Hourly Weather History & Observations

Time (EDT) Temp. Windchill Dew Point Humidity Pressure Visibility Wind Dir Wind Speed Gust Speed Precip Events Conditions
12:15 AM 30.9 °F - 20.7 °F 66% 29.76 in 10.0 mi Calm Calm - N/A   Scattered Clouds
12:35 AM 29.7 °F - 20.5 °F 69% 29.75 in 10.0 mi Calm Calm - N/A   Mostly Cloudy
12:55 AM 29.7 °F - 21.0 °F 70% 29.75 in 10.0 mi Calm Calm - N/A   Mostly Cloudy
1:15 AM 30.2 °F - 21.4 °F 70% 29.76 in 10.0 mi Calm Calm - N/A   Overcast
1:35 AM 29.8 °F - 21.9 °F 72% 29.75 in 10.0 mi Calm Calm - N/A   Overcast
1:55 AM 30.2 °F - 21.9 °F 71% 29.75 in 10.0 mi Calm Calm - N/A   Overcast
2:15 AM 31.5 °F - 21.2 °F 66% 29.75 in 10.0 mi Calm Calm - N/A   Overcast
2:35 AM 31.8 °F 28.5 °F 21.2 °F 65% 29.75 in 10.0 mi WNW 3.5 mph - N/A   Overcast
2:55 AM 31.1 °F - 21.2 °F 67% 29.75 in 10.0 mi Calm Calm - N/A   Overcast
3:15 AM 31.1 °F - 21.2 °F 67% 29.74 in 10.0 mi Calm Calm - N/A   Overcast
3:55 AM 29.8 °F 26.3 °F 21.2 °F 70% 29.74 in 10.0 mi NNW 3.5 mph - N/A   Scattered Clouds
4:15 AM 30.4 °F - 20.5 °F 67% 29.74 in 10.0 mi Calm Calm - N/A   Clear
4:35 AM 27.5 °F - 21.0 °F 77% 29.74 in 10.0 mi Calm Calm - N/A   Clear
4:55 AM 29.3 °F - 21.0 °F 71% 29.75 in 10.0 mi Calm Calm - N/A   Clear
5:15 AM 27.5 °F - 21.0 °F 77% 29.75 in 10.0 mi Calm Calm - N/A   Clear
5:35 AM 27.7 °F - 20.8 °F 75% 29.75 in 10.0 mi Calm Calm - N/A   Clear
5:55 AM 26.4 °F - 20.8 °F 79% 29.76 in 10.0 mi Calm Calm - N/A   Clear
6:15 AM 26.2 °F - 20.8 °F 80% 29.76 in 10.0 mi Calm Calm - N/A   Clear
6:35 AM 25.5 °F - 21.6 °F 85% 29.76 in 10.0 mi Calm Calm - N/A   Clear
6:55 AM 25.3 °F - 20.5 °F 82% 29.76 in 10.0 mi Calm Calm - N/A   Clear
7:15 AM 26.6 °F 21.2 °F 21.7 °F 82% 29.77 in 10.0 mi WNW 4.6 mph - N/A   Clear
7:35 AM 26.6 °F - 21.0 °F 79% 29.78 in 10.0 mi Calm Calm - N/A   Clear
7:55 AM 27.3 °F - 21.0 °F 77% 29.78 in 10.0 mi Calm Calm - N/A   Clear
8:15 AM 28.9 °F - 21.2 °F 73% 29.79 in 10.0 mi Calm Calm - N/A   Mostly Cloudy
8:35 AM 30.6 °F - 22.3 °F 71% 29.79 in 10.0 mi Calm Calm - N/A   Overcast
8:55 AM 31.3 °F - 22.6 °F 70% 29.79 in 10.0 mi Calm Calm - N/A   Overcast
9:15 AM 32.2 °F - 23.0 °F 69% 29.80 in 10.0 mi Calm Calm - N/A   Overcast
9:55 AM 36.7 °F - 22.8 °F 57% 29.80 in 10.0 mi Calm Calm - N/A   Mostly Cloudy
10:15 AM 37.4 °F 34.9 °F 23.7 °F 58% 29.80 in 10.0 mi NNE 3.5 mph - N/A   Mostly Cloudy
10:35 AM 38.3 °F 32.5 °F 25.0 °F 59% 29.80 in 10.0 mi NNW 8.1 mph - N/A   Overcast
10:55 AM 37.6 °F 30.5 °F 25.3 °F 61% 29.80 in 10.0 mi NNW 10.4 mph - N/A   Overcast
11:15 AM 38.7 °F 32.4 °F 25.3 °F 59% 29.80 in 10.0 mi NW 9.2 mph 17.3 mph N/A   Mostly Cloudy
11:35 AM 38.8 °F 30.8 °F 24.8 °F 57% 29.80 in 10.0 mi North 13.8 mph - N/A   Mostly Cloudy
11:55 AM 39.4 °F 31.8 °F 25.5 °F 58% 29.80 in 10.0 mi NW 12.7 mph - N/A   Mostly Cloudy
12:15 PM 39.2 °F 32.5 °F 24.8 °F 56% 29.80 in 10.0 mi NW 10.4 mph 17.3 mph N/A   Overcast
12:35 PM 39.2 °F 32.5 °F 25.2 °F 57% 29.80 in 10.0 mi NW 10.4 mph 17.3 mph N/A   Overcast
12:55 PM 39.6 °F 32.5 °F 24.8 °F 56% 29.80 in 10.0 mi NW 11.5 mph - N/A   Overcast
1:15 PM 40.3 °F 34.4 °F 24.3 °F 53% 29.80 in 10.0 mi NW 9.2 mph 17.3 mph N/A   Mostly Cloudy
1:35 PM 40.3 °F 33.9 °F 24.1 °F 52% 29.80 in 10.0 mi NW 10.4 mph 17.3 mph N/A   Mostly Cloudy
1:55 PM 40.3 °F 33.4 °F 24.8 °F 54% 29.80 in 10.0 mi NNW 11.5 mph 16.1 mph N/A   Overcast
2:15 PM 39.6 °F 31.7 °F 25.2 °F 56% 29.80 in 10.0 mi NW 13.8 mph 20.7 mph N/A   Overcast
2:35 PM 40.1 °F 34.1 °F 25.5 °F 56% 29.80 in 10.0 mi NW 9.2 mph - N/A   Overcast
2:55 PM 40.1 °F 34.1 °F 25.7 °F 56% 29.80 in 10.0 mi WNW 9.2 mph 16.1 mph N/A   Overcast
3:15 PM 39.6 °F 34.0 °F 25.7 °F 58% 29.81 in 10.0 mi NW 8.1 mph 16.1 mph N/A   Overcast
3:35 PM 38.8 °F 32.6 °F 26.8 °F 62% 29.81 in 10.0 mi NW 9.2 mph - N/A   Overcast
3:55 PM 38.5 °F 32.7 °F 28.2 °F 67% 29.81 in 10.0 mi NW 8.1 mph - N/A   Overcast
4:15 PM 38.7 °F 33.6 °F 28.2 °F 66% 29.82 in 10.0 mi WNW 6.9 mph - N/A   Mostly Cloudy
4:35 PM 38.7 °F 31.8 °F 27.3 °F 64% 29.82 in 10.0 mi NW 10.4 mph - N/A   Mostly Cloudy
4:55 PM 38.5 °F 32.7 °F 28.4 °F 67% 29.82 in 10.0 mi NW 8.1 mph - N/A   Overcast
5:15 PM 37.8 °F 31.8 °F 28.0 °F 68% 29.83 in 10.0 mi WNW 8.1 mph - N/A   Overcast
5:35 PM 38.1 °F 31.7 °F 28.0 °F 67% 29.84 in 10.0 mi NW 9.2 mph - N/A   Overcast
5:55 PM 37.4 °F 32.1 °F 28.8 °F 71% 29.84 in 10.0 mi NW 6.9 mph - N/A   Overcast
6:15 PM 36.9 °F 32.2 °F 29.5 °F 75% 29.85 in 7.0 mi NNW 5.8 mph - N/A Rain Light Rain
6:35 PM 36.0 °F 31.1 °F 30.2 °F 80% 29.86 in 10.0 mi NNW 5.8 mph - N/A Rain Rain
6:55 PM 35.6 °F 31.7 °F 30.2 °F 81% 29.86 in 10.0 mi NNW 4.6 mph - N/A Rain Light Rain
7:15 PM 35.1 °F 31.0 °F 30.6 °F 84% 29.87 in 10.0 mi NNW 4.6 mph - N/A Rain Light Rain
7:35 PM 35.1 °F 30.1 °F 30.7 °F 84% 29.87 in 10.0 mi NW 5.8 mph - N/A Rain Rain
7:55 PM 34.7 °F 29.6 °F 31.1 °F 87% 29.88 in 4.0 mi NNW 5.8 mph - N/A Rain Light Rain
8:15 PM 34.2 °F 30.0 °F 31.1 °F 89% 29.88 in 4.0 mi NW 4.6 mph - N/A   Overcast
8:35 PM 34.2 °F - 31.1 °F 89% 29.89 in 5.0 mi Calm Calm - N/A Rain Light Rain
8:55 PM 34.3 °F 30.2 °F 31.1 °F 88% 29.90 in 7.0 mi NNW 4.6 mph - N/A Rain Light Rain
9:15 PM 34.3 °F 31.4 °F 31.1 °F 88% 29.90 in 5.0 mi NNW 3.5 mph - N/A   Overcast
9:35 PM 34.7 °F 31.8 °F 31.3 °F 87% 29.90 in 3.0 mi North 3.5 mph - N/A Snow Light Snow
9:55 PM 33.8 °F - 31.1 °F 90% 29.90 in 4.0 mi Calm Calm - N/A Snow Light Snow
10:15 PM 33.3 °F - 30.9 °F 91% 29.90 in 0.5 mi Calm Calm - N/A Snow Light Snow
10:35 PM 33.3 °F - 31.1 °F 92% 29.90 in 1.0 mi Calm Calm - N/A Snow Light Snow
10:55 PM 33.3 °F - 31.1 °F 92% 29.90 in 1.0 mi Calm Calm - N/A Snow Light Snow
11:15 PM 32.9 °F - 31.1 °F 93% 29.90 in 1.0 mi Calm Calm - N/A Snow Light Snow
11:35 PM 32.5 °F - 31.1 °F 94% 29.90 in 0.8 mi Calm Calm - N/A Snow Light Snow
11:55 PM 32.9 °F - 31.3 °F 94% 29.90 in 1.8 mi Calm Calm - N/A Snow Light Snow